Location: ??
(31.9467°N, 34.8903°E)
Time: 12:27:47
(UTC+00:00)

H-2A R/B - Pass Details

Date: 29 October 2020
Orbit: 733 x 837 km, 98.2° (Epoch: 26 November)

Event Time Altitude Azimuth Distance (km) Brightness Sun altitude
Exits shadow 16:15:51 20° 129° (SE) 1,839 3.6 -18.1°
Maximum altitude 16:19:05 39° 72° (ENE) 1,235 2.6 -18.8°
Drops below altitude 10° 16:24:06 10° 5° (N) 2,454 4.5 -19.8°
Sets 16:26:36 0° 358° (N) 3,391 5.3 -20.3°
